Location: Arcones
(41.1182°N, 3.7238°W)
Time: 00:15:35
(UTC+00:00)

IRIDIUM 106 - Pass Details

Date: 20 March 2026
Orbit: 776 x 780 km, 86.4° (Epoch: 13 April)

Event Time Altitude Azimuth Distance (km) Brightness Sun altitude
Exits shadow 20:19:17 38° 67° (ENE) 1,176 4.9 -21.5°
Drops below altitude 10° 20:23:28 10° 18° (NNE) 2,338 6.8 -22.3°
Sets 20:25:56 0° 11° (N) 3,270 7.7 -22.7°
